Location: Newark
(40.9833°N, 0.0333°W)
Time: 02:27:44
(UTC+00:00)

Altair - Pass Details

Date: 03 November 2020
Orbit: 1502 x 1682 km, 47.2° (Epoch: 02 December)

Event Time Altitude Azimuth Distance (km) Brightness Sun altitude
Rises 05:24:53 0° 265° (W) 4,643 - -13.4°
Reaches altitude 10° 05:27:57 10° 269° (W) 3,674 - -12.8°
Exits shadow 05:29:10 15° 271° (W) 3,297 8.6 -12.6°
Maximum altitude 05:37:08 63° 350° (N) 1,696 7.6 -11.1°
Drops below altitude 10° 05:46:40 10° 71° (ENE) 3,800 10.6 -9.4°
Sets 05:49:53 0° 75° (ENE) 4,811 11.3 -8.8°
